Regional Weather Roundup
Issued by NWS Albany, NY

Home | Current Version | Previous Version | Text Only | Print | Product List | Glossary On
Versions: 1 2 3 4 5 6 7 8 9 10 11 12 13 14 15 16 17 18 19 20 21 22 23 24 25 26 27 28
000
ASUS41 KALY 092010
RWRALY

NEW YORK STATE HOURLY WEATHER ROUNDUP
NATIONAL WEATHER SERVICE ALBANY NY
300 PM EST FRI DEC 09 2016

NOTE: "FAIR" INDICATES FEW OR NO CLOUDS BELOW 12,000 FEET WITH NO
SIGNIFICANT WEATHER AND/OR NO OBSTRUCTIONS TO VISIBILITY.

NYZ032-033-038>043-046>054-057>066-NYZ062>081-082-084-092100-
EAST


CITY           SKY/WX    TMP DP  RH WIND       PRES   REMARKS
ALBANY         PTSUNNY   29   9  43 W18G28    30.12R WCI  16
GLENS FALLS    PTSUNNY   31   8  38 NW8       30.09R WCI  23
POUGHKEEPSIE   PTSUNNY   35  11  36 W16G24    30.09R WCI  25
NEWBURGH       PTSUNNY   34  14  44 W23G37    30.11R WCI  22
MONTGOMERY     PTSUNNY   36  12  37 NW20G32   30.10R WCI  25
WHITE PLAINS   PTSUNNY   36  12  37 NW29G46   30.08R WCI  23
ISLIP          MOSUNNY   39  14  36 NW23      30.07R WCI  28
NEW YORK CITY  PTSUNNY   41  17  38 NW24G35   30.12R
CENTRAL PARK   PTSUNNY   39  11  31 NW10G23   30.13  WCI  32
$$

NYZ005>009-017-018-044>046-055-056-092100-
CENTRAL


CITY           SKY/WX    TMP DP  RH WIND       PRES   REMARKS
FULTON         CLOUDY    27  17  66 NW15      30.20R WCI  15
SYRACUSE       CLOUDY    25  19  78 NW13      30.20R WCI  14
ROME           FLURRIES  24  19  81 NW10      30.19R WCI  14
ELMIRA         PTSUNNY   29  12  49 NW14G29   30.20R WCI  18
BINGHAMTON     CLOUDY    22  13  68 NW16G24   30.12R WCI   8
MONTICELLO     SUNNY     27  12  54 NW22G39   30.08R WCI  12
$$

NYZ026>034-041>043-087-092100-
NORTH


CITY           SKY/WX    TMP DP  RH WIND       PRES   REMARKS
WATERTOWN      CLOUDY    26  13  57 W9        30.19R WCI  17
FORT DRUM      NOT AVBL
OGDENSBURG     FAIR      27  13  55 NW10      30.16R WCI  17
MASSENA        MOCLDY    25  13  60 W13G22    30.16R WCI  14
SARANAC LAKE   LGT SNOW  17  11  77 W7        30.01R WCI   8
PLATTSBURGH    CLOUDY    26   9  48 W7        30.08R WCI  18
$$

NYZ001>004-010>016-019>021-085-092100-
WEST


CITY           SKY/WX    TMP DP  RH WIND       PRES   REMARKS
NIAGARA FALLS  PTSUNNY   32  14  47 NW16      30.24R WCI  21
BUFFALO        PTSUNNY   30  12  47 NW13G22   30.24R WCI  20
DUNKIRK        CLOUDY    30  19  63 NW14G26   30.27R WCI  19
JAMESTOWN      CLOUDY    25  21  86 W14       30.20R VSB 1   WCI  13
WELLSVILLE     CLOUDY    25  13  60 NW17G25   30.16R WCI  12
ROCHESTER      FLURRIES  29  15  56 NW12      30.23R WCI  19
PENN YAN       MOSUNNY   27  13  55 W10       30.20R WCI  17
$$

             KEY
       WCI = WIND CHILL INDEX
       VSB = VISIBILITY
       HX  = HEAT INDEX
$$




USA.gov is the U.S. government's official web portal to all federal, state and local government web resources and services.